| time (UTC) | temp F | wind direction | speed MPH | gust MPH | rain 1hr in | rain 24hr in | rain mn in | humidity % | barometer mb |
| 20260906212320 | 74 | 242 | 0.0 | 3.0 | 0.00 | 0.03 | 0.03 | 32 | 1013.2 |
| 20260906211819 | 75 | 82 | 0.0 | 3.0 | 0.00 | 0.03 | 0.03 | 29 | 1013.3 |
| 20260906211320 | 75 | 146 | 0.0 | 4.0 | 0.00 | 0.03 | 0.03 | 31 | 1013.3 |
| 20260906211049 | 75 | 163 | 0.0 | 5.0 | 0.00 | 0.03 | 0.03 | 30 | 1013.2 |
| 20260906210538 | 75 | 25 | 0.0 | 5.0 | 0.00 | 0.03 | 0.03 | 26 | 1013.2 |
| 20260906210040 | 76 | 185 | 0.0 | 0.0 | 0.00 | 0.03 | 0.03 | 31 | 1013.3 |
| 20260906205316 | 76 | 351 | 0.0 | 0.0 | 0.00 | 0.03 | 0.03 | 29 | 1013.3 |
| 20260906204814 | 76 | 198 | 0.0 | 2.0 | 0.00 | 0.03 | 0.03 | 29 | 1013.2 |
| 20260906204312 | 76 | 198 | 1.0 | 3.0 | 0.00 | 0.03 | 0.03 | 26 | 1013.2 |
| 20260906203812 | 77 | 355 | 1.0 | 3.0 | 0.00 | 0.03 | 0.03 | 24 | 1013.1 |
| 20260906203308 | 77 | 185 | 1.0 | 3.0 | 0.00 | 0.03 | 0.03 | 27 | 1013.2 |
| 20260906203037 | 77 | 181 | 1.0 | 3.0 | 0.00 | 0.03 | 0.03 | 28 | 1013.1 |
| 20260906202307 | 77 | 173 | 1.0 | 3.0 | 0.00 | 0.03 | 0.03 | 24 | 1013.2 |
| 20260906202024 | 77 | 173 | 1.0 | 3.0 | 0.00 | 0.03 | 0.03 | 27 | 1013.1 |
| 20260906201301 | 77 | 187 | 0.0 | 3.0 | 0.00 | 0.03 | 0.03 | 27 | 1013.2 |
| 20260906200754 | 78 | 333 | 0.0 | 2.0 | 0.00 | 0.03 | 0.03 | 29 | 1013.2 |
| 20260906200254 | 77 | 194 | 1.0 | 4.0 | 0.00 | 0.03 | 0.03 | 31 | 1013.3 |
| 20260906195754 | 77 | 15 | 1.0 | 4.0 | 0.00 | 0.03 | 0.03 | 31 | 1013.2 |
| 20260906195254 | 77 | 9 | 1.0 | 4.0 | 0.00 | 0.03 | 0.03 | 30 | 1013.3 |
| 20260906194751 | 77 | 355 | 1.0 | 4.0 | 0.00 | 0.03 | 0.03 | 26 | 1013.3 |
| 20260906194251 | 76 | 185 | 0.0 | 3.0 | 0.00 | 0.03 | 0.03 | 26 | 1013.4 |
| 20260906193750 | 76 | 186 | 0.0 | 3.0 | 0.00 | 0.03 | 0.03 | 29 | 1013.5 |
| 20260906193248 | 77 | 132 | 1.0 | 2.0 | 0.00 | 0.03 | 0.03 | 28 | 1013.4 |
| 20260906193013 | 77 | 94 | 1.0 | 5.0 | 0.00 | 0.03 | 0.03 | 27 | 1013.5 |
| 20260906192248 | 78 | 344 | 0.0 | 5.0 | 0.00 | 0.03 | 0.03 | 26 | 1013.3 |
| 20260906191748 | 78 | 207 | 0.0 | 3.0 | 0.00 | 0.03 | 0.03 | 29 | 1013.4 |
| 20260906191248 | 78 | 207 | 0.0 | 3.0 | 0.00 | 0.03 | 0.03 | 29 | 1013.4 |
| 20260906190746 | 77 | 207 | 1.0 | 4.0 | 0.00 | 0.03 | 0.03 | 28 | 1013.3 |
| 20260906190249 | 77 | 207 | 1.0 | 9.0 | 0.00 | 0.03 | 0.03 | 29 | 1013.4 |
| 20260906185745 | 77 | 206 | 1.0 | 9.0 | 0.00 | 0.03 | 0.03 | 30 | 1013.4 |
| 20260906185247 | 76 | 92 | 1.0 | 3.0 | 0.00 | 0.03 | 0.03 | 28 | 1013.4 |
| 20260906184746 | 76 | 200 | 0.0 | 3.0 | 0.00 | 0.03 | 0.03 | 26 | 1013.5 |
| 20260906184244 | 77 | 0 | 0.0 | 1.0 | 0.00 | 0.03 | 0.03 | 29 | 1013.4 |
| 20260906183745 | 77 | 236 | 1.0 | 5.0 | 0.00 | 0.03 | 0.03 | 29 | 1013.5 |
| 20260906183246 | 77 | 173 | 1.0 | 5.0 | 0.00 | 0.03 | 0.03 | 29 | 1013.5 |
| 20260906182746 | 76 | 174 | 1.0 | 2.0 | 0.00 | 0.03 | 0.03 | 32 | 1013.5 |
| 20260906182246 | 76 | 196 | 1.0 | 3.0 | 0.00 | 0.03 | 0.03 | 30 | 1013.5 |
| 20260906181746 | 76 | 202 | 0.0 | 3.0 | 0.00 | 0.03 | 0.03 | 28 | 1013.6 |
| 20260906181242 | 76 | 298 | 1.0 | 6.0 | 0.00 | 0.03 | 0.03 | 32 | 1013.6 |
| 20260906180742 | 76 | 215 | 1.0 | 6.0 | 0.00 | 0.03 | 0.03 | 30 | 1013.6 |
| 20260906180241 | 75 | 189 | 0.0 | 1.0 | 0.00 | 0.03 | 0.03 | 32 | 1013.7 |
| 20260906175742 | 75 | 329 | 0.0 | 0.0 | 0.00 | 0.03 | 0.03 | 33 | 1013.8 |
| 20260906175241 | 75 | 157 | 0.0 | 1.0 | 0.00 | 0.03 | 0.03 | 29 | 1013.8 |
| 20260906174740 | 74 | 240 | 0.0 | 3.0 | 0.00 | 0.03 | 0.03 | 35 | 1013.8 |
| 20260906174505 | 74 | 309 | 1.0 | 3.0 | 0.00 | 0.03 | 0.03 | 32 | 1013.8 |
| 20260906173741 | 74 | 254 | 1.0 | 4.0 | 0.00 | 0.03 | 0.03 | 32 | 1013.8 |
| 20260906173242 | 74 | 330 | 1.0 | 4.0 | 0.00 | 0.03 | 0.03 | 31 | 1013.8 |
| 20260906172959 | 74 | 211 | 1.0 | 3.0 | 0.00 | 0.03 | 0.03 | 35 | 1013.9 |
| 20260906172237 | 73 | 355 | 1.0 | 3.0 | 0.00 | 0.03 | 0.03 | 32 | 1014.0 |
| 20260906171737 | 73 | 183 | 0.0 | 3.0 | 0.00 | 0.03 | 0.03 | 33 | 1014.1 |
| 20260906171237 | 73 | 188 | 0.0 | 0.0 | 0.00 | 0.03 | 0.03 | 33 | 1014.2 |
| 20260906170736 | 73 | 333 | 0.0 | 0.0 | 0.00 | 0.03 | 0.03 | 32 | 1014.4 |
| 20260906170236 | 72 | 209 | 0.0 | 0.0 | 0.00 | 0.03 | 0.03 | 34 | 1014.4 |
| 20260906165736 | 72 | 225 | 0.0 | 0.0 | 0.00 | 0.03 | 0.03 | 36 | 1014.4 |
| 20260906165237 | 72 | 233 | 0.0 | 0.0 | 0.00 | 0.03 | 0.03 | 38 | 1014.3 |
| 20260906164738 | 71 | 220 | 0.0 | 0.0 | 0.00 | 0.03 | 0.03 | 40 | 1014.4 |
| 20260906164232 | 71 | 194 | 0.0 | 0.0 | 0.00 | 0.03 | 0.03 | 46 | 1014.6 |
| 20260906163732 | 70 | 189 | 0.0 | 0.0 | 0.00 | 0.03 | 0.03 | 46 | 1014.7 |
| 20260906163234 | 69 | 185 | 0.0 | 0.0 | 0.00 | 0.03 | 0.03 | 43 | 1014.7 |
| 20260906163000 | 69 | 186 | 0.0 | 0.0 | 0.00 | 0.03 | 0.03 | 45 | 1014.7 |
| 20260906162231 | 68 | 194 | 0.0 | 0.0 | 0.00 | 0.03 | 0.03 | 42 | 1014.8 |
| 20260906161729 | 68 | 190 | 0.0 | 0.0 | 0.00 | 0.03 | 0.03 | 48 | 1014.9 |
| 20260906161227 | 67 | 190 | 0.0 | 0.0 | 0.00 | 0.03 | 0.03 | 51 | 1015.0 |
| 20260906160725 | 66 | 174 | 0.0 | 0.0 | 0.00 | 0.03 | 0.03 | 51 | 1014.9 |
| 20260906160446 | 66 | 328 | 0.0 | 2.0 | 0.00 | 0.03 | 0.03 | 48 | 1015.0 |
| 20260906155726 | 66 | 191 | 0.0 | 3.0 | 0.00 | 0.03 | 0.03 | 54 | 1015.0 |
| 20260906155442 | 65 | 229 | 0.0 | 3.0 | 0.00 | 0.03 | 0.03 | 54 | 1015.1 |
| 20260906154722 | 65 | 207 | 0.0 | 0.0 | 0.00 | 0.03 | 0.03 | 54 | 1015.2 |
| 20260906154219 | 65 | 207 | 0.0 | 0.0 | 0.00 | 0.03 | 0.03 | 53 | 1015.3 |
| 20260906153718 | 64 | 207 | 0.0 | 0.0 | 0.00 | 0.03 | 0.03 | 56 | 1015.2 |
| 20260906153220 | 64 | 350 | 0.0 | 0.0 | 0.00 | 0.03 | 0.03 | 56 | 1015.3 |
| 20260906152717 | 64 | 208 | 0.0 | 0.0 | 0.00 | 0.03 | 0.03 | 55 | 1015.3 |
| 20260906152216 | 64 | 208 | 0.0 | 0.0 | 0.00 | 0.03 | 0.03 | 58 | 1015.3 |
| 20260906151718 | 63 | 221 | 0.0 | 0.0 | 0.00 | 0.03 | 0.03 | 57 | 1015.4 |
| 20260906151434 | 63 | 221 | 0.0 | 0.0 | 0.00 | 0.03 | 0.03 | 58 | 1015.3 |
| 20260906150705 | 62 | 252 | 0.0 | 0.0 | 0.00 | 0.03 | 0.03 | 58 | 1015.4 |
| 20260906150423 | 62 | 215 | 0.0 | 0.0 | 0.00 | 0.03 | 0.03 | 56 | 1015.5 |
| 20260906145653 | 62 | 215 | 0.0 | 0.0 | 0.00 | 0.03 | 0.03 | 58 | 1015.4 |
| 20260906145147 | 62 | 215 | 0.0 | 0.0 | 0.00 | 0.03 | 0.03 | 62 | 1015.5 |
| 20260906144641 | 61 | 215 | 0.0 | 0.0 | 0.00 | 0.03 | 0.03 | 61 | 1015.5 |
| 20260906144135 | 61 | 215 | 0.0 | 0.0 | 0.00 | 0.03 | 0.03 | 61 | 1015.6 |
| 20260906143629 | 61 | 215 | 0.0 | 0.0 | 0.00 | 0.03 | 0.03 | 63 | 1015.5 |
| 20260906143124 | 61 | 159 | 0.0 | 0.0 | 0.00 | 0.03 | 0.03 | 63 | 1015.5 |
| 20260906142837 | 60 | 159 | 0.0 | 0.0 | 0.00 | 0.03 | 0.03 | 65 | 1015.6 |
| 20260906142110 | 60 | 355 | 0.0 | 1.0 | 0.00 | 0.03 | 0.03 | 66 | 1015.6 |
| 20260906141825 | 60 | 355 | 0.0 | 2.0 | 0.00 | 0.03 | 0.03 | 65 | 1015.7 |
| 20260906141058 | 60 | 355 | 0.0 | 2.0 | 0.00 | 0.03 | 0.03 | 66 | 1015.6 |
| 20260906140553 | 60 | 184 | 0.0 | 2.0 | 0.00 | 0.03 | 0.03 | 66 | 1015.5 |
| 20260906140526 | 60 | 184 | 0.0 | 1.0 | 0.00 | 0.03 | 0.03 | 67 | 1015.6 |
| 20260906135541 | 60 | 184 | 0.0 | 1.0 | 0.00 | 0.03 | 0.03 | 68 | 1015.6 |
| 20260906135035 | 59 | 184 | 0.0 | 3.0 | 0.00 | 0.03 | 0.03 | 67 | 1015.6 |
| 20260906134529 | 59 | 184 | 0.0 | 3.0 | 0.00 | 0.03 | 0.03 | 68 | 1015.5 |
| 20260906134023 | 59 | 184 | 0.0 | 2.0 | 0.00 | 0.03 | 0.03 | 69 | 1015.4 |
| 20260906133517 | 59 | 184 | 0.0 | 3.0 | 0.00 | 0.03 | 0.03 | 69 | 1015.4 |
| 20260906133011 | 59 | 184 | 0.0 | 3.0 | 0.00 | 0.03 | 0.03 | 69 | 1015.3 |
| 20260906132505 | 59 | 350 | 0.0 | 2.0 | 0.00 | 0.03 | 0.03 | 70 | 1015.4 |
| 20260906131959 | 59 | 350 | 0.0 | 2.0 | 0.00 | 0.03 | 0.03 | 70 | 1015.5 |
| 20260906131453 | 58 | 182 | 0.0 | 2.0 | 0.00 | 0.03 | 0.03 | 71 | 1015.4 |
| 20260906130947 | 58 | 182 | 0.0 | 3.0 | 0.00 | 0.03 | 0.03 | 71 | 1015.4 |
| 20260906130922 | 58 | 182 | 0.0 | 3.0 | 0.00 | 0.03 | 0.03 | 74 | 1015.4 |
| 20260906125935 | 58 | 196 | 0.0 | 2.0 | 0.00 | 0.03 | 0.03 | 77 | 1015.3 |
| 20260906125429 | 58 | 196 | 0.0 | 0.0 | 0.00 | 0.03 | 0.03 | 79 | 1015.4 |
| 20260906125156 | 58 | 196 | 0.0 | 0.0 | 0.00 | 0.03 | 0.03 | 79 | 1015.5 |
| 20260906124417 | 58 | 196 | 0.0 | 0.0 | 0.00 | 0.03 | 0.03 | 79 | 1015.5 |
| 20260906123911 | 57 | 196 | 0.0 | 0.0 | 0.00 | 0.03 | 0.03 | 79 | 1015.5 |
| 20260906123412 | 57 | 196 | 0.0 | 0.0 | 0.00 | 0.03 | 0.03 | 78 | 1015.7 |
| 20260906122908 | 57 | 196 | 0.0 | 0.0 | 0.00 | 0.03 | 0.03 | 78 | 1015.6 |
| 20260906122407 | 57 | 196 | 0.0 | 0.0 | 0.00 | 0.03 | 0.03 | 78 | 1015.7 |
| 20260906121905 | 57 | 196 | 0.0 | 0.0 | 0.00 | 0.03 | 0.03 | 78 | 1015.6 |
| 20260906121845 | 57 | 196 | 0.0 | 0.0 | 0.00 | 0.03 | 0.03 | 78 | 1015.5 |
| 20260906120905 | 57 | 196 | 0.0 | 0.0 | 0.00 | 0.03 | 0.03 | 78 | 1015.6 |
| 20260906120403 | 57 | 196 | 0.0 | 0.0 | 0.00 | 0.03 | 0.03 | 78 | 1015.5 |
| 20260906115901 | 57 | 196 | 0.0 | 0.0 | 0.00 | 0.03 | 0.03 | 78 | 1015.5 |
| 20260906115358 | 57 | 196 | 0.0 | 0.0 | 0.00 | 0.03 | 0.03 | 79 | 1015.4 |
| 20260906114857 | 57 | 196 | 0.0 | 0.0 | 0.00 | 0.03 | 0.03 | 79 | 1015.4 |
| 20260906114355 | 57 | 196 | 0.0 | 0.0 | 0.00 | 0.03 | 0.03 | 78 | 1015.3 |
| 20260906113854 | 56 | 196 | 0.0 | 0.0 | 0.00 | 0.03 | 0.03 | 78 | 1015.2 |
| 20260906113355 | 56 | 196 | 0.0 | 0.0 | 0.01 | 0.03 | 0.03 | 77 | 1015.2 |
| 20260906112856 | 56 | 196 | 0.0 | 0.0 | 0.01 | 0.03 | 0.03 | 77 | 1015.2 |
| 20260906112356 | 56 | 196 | 0.0 | 0.0 | 0.01 | 0.03 | 0.03 | 76 | 1015.1 |
| 20260906111852 | 56 | 196 | 0.0 | 0.0 | 0.01 | 0.03 | 0.03 | 76 | 1015.0 |
| 20260906111354 | 56 | 196 | 0.0 | 0.0 | 0.01 | 0.03 | 0.03 | 76 | 1015.0 |
| 20260906110852 | 56 | 196 | 0.0 | 0.0 | 0.02 | 0.03 | 0.03 | 75 | 1014.9 |
| 20260906110609 | 56 | 196 | 0.0 | 0.0 | 0.02 | 0.03 | 0.03 | 74 | 1014.9 |
| 20260906105851 | 56 | 196 | 0.0 | 0.0 | 0.02 | 0.03 | 0.03 | 72 | 1015.0 |
| 20260906105346 | 56 | 196 | 0.0 | 0.0 | 0.03 | 0.03 | 0.03 | 72 | 1014.9 |
| 20260906105058 | 56 | 196 | 0.0 | 0.0 | 0.03 | 0.03 | 0.03 | 71 | 1014.9 |
| 20260906104333 | 56 | 196 | 0.0 | 0.0 | 0.03 | 0.03 | 0.03 | 71 | 1014.8 |
| 20260906103827 | 56 | 196 | 0.0 | 0.0 | 0.03 | 0.03 | 0.03 | 70 | 1014.8 |
| 20260906103549 | 56 | 196 | 0.0 | 0.0 | 0.02 | 0.02 | 0.02 | 70 | 1014.9 |
| 20260906102821 | 56 | 196 | 0.0 | 0.0 | 0.02 | 0.02 | 0.02 | 69 | 1014.8 |
| 20260906102318 | 56 | 196 | 0.0 | 0.0 | 0.02 | 0.02 | 0.02 | 69 | 1014.9 |
| 20260906101817 | 56 | 196 | 0.0 | 0.0 | 0.02 | 0.02 | 0.02 | 69 | 1014.9 |
| 20260906101314 | 56 | 196 | 0.0 | 0.0 | 0.02 | 0.02 | 0.02 | 69 | 1014.8 |
| 20260906100814 | 57 | 196 | 0.0 | 0.0 | 0.01 | 0.01 | 0.01 | 69 | 1014.8 |
| 20260906100315 | 57 | 196 | 0.0 | 0.0 | 0.01 | 0.01 | 0.01 | 69 | 1014.8 |
| 20260906095815 | 57 | 196 | 0.0 | 0.0 | 0.01 | 0.01 | 0.01 | 69 | 1014.8 |
| 20260906095313 | 57 | 196 | 0.0 | 0.0 | 0.00 | 0.00 | 0.00 | 68 | 1014.7 |
| 20260906094813 | 57 | 196 | 0.0 | 0.0 | 0.00 | 0.00 | 0.00 | 68 | 1014.7 |
| 20260906094309 | 57 | 196 | 0.0 | 0.0 | 0.00 | 0.00 | 0.00 | 68 | 1014.5 |
| 20260906093811 | 57 | 196 | 0.0 | 0.0 | 0.00 | 0.00 | 0.00 | 68 | 1014.5 |
| 20260906093311 | 57 | 196 | 0.0 | 0.0 | 0.00 | 0.00 | 0.00 | 68 | 1014.5 |
| 20260906093035 | 57 | 196 | 0.0 | 0.0 | 0.00 | 0.00 | 0.00 | 67 | 1014.4 |
| 20260906092306 | 57 | 196 | 0.0 | 0.0 | 0.00 | 0.00 | 0.00 | 67 | 1014.3 |
| 20260906091806 | 57 | 196 | 0.0 | 0.0 | 0.00 | 0.00 | 0.00 | 67 | 1014.3 |
| 20260906091306 | 57 | 196 | 0.0 | 0.0 | 0.00 | 0.00 | 0.00 | 66 | 1014.2 |
| 20260906090807 | 57 | 196 | 0.0 | 0.0 | 0.00 | 0.00 | 0.00 | 66 | 1014.1 |
| 20260906090307 | 57 | 196 | 0.0 | 0.0 | 0.00 | 0.00 | 0.00 | 66 | 1014.2 |
| 20260906085806 | 57 | 196 | 0.0 | 0.0 | 0.00 | 0.00 | 0.00 | 66 | 1014.1 |
| 20260906085306 | 58 | 196 | 0.0 | 0.0 | 0.00 | 0.00 | 0.00 | 66 | 1014.1 |
| 20260906084803 | 58 | 196 | 0.0 | 0.0 | 0.00 | 0.00 | 0.00 | 66 | 1014.1 |
| 20260906084303 | 58 | 196 | 0.0 | 0.0 | 0.00 | 0.00 | 0.00 | 67 | 1014.0 |
| 20260906083804 | 58 | 196 | 0.0 | 0.0 | 0.00 | 0.00 | 0.00 | 67 | 1014.0 |
| 20260906083304 | 58 | 196 | 0.0 | 0.0 | 0.00 | 0.00 | 0.00 | 66 | 1013.8 |
| 20260906082805 | 58 | 196 | 0.0 | 0.0 | 0.00 | 0.00 | 0.00 | 66 | 1013.9 |
| 20260906082306 | 58 | 196 | 0.0 | 0.0 | 0.00 | 0.00 | 0.00 | 66 | 1013.9 |
| 20260906081805 | 59 | 196 | 0.0 | 0.0 | 0.00 | 0.00 | 0.00 | 66 | 1013.9 |
| 20260906081525 | 59 | 196 | 0.0 | 0.0 | 0.00 | 0.00 | 0.00 | 65 | 1013.8 |
| 20260906080800 | 59 | 196 | 0.0 | 0.0 | 0.00 | 0.00 | 0.00 | 65 | 1013.9 |
| 20260906080301 | 59 | 196 | 0.0 | 0.0 | 0.00 | 0.00 | 0.00 | 64 | 1013.8 |
| 20260906075800 | 59 | 196 | 0.0 | 0.0 | 0.00 | 0.00 | 0.00 | 64 | 1013.8 |
| 20260906075300 | 59 | 196 | 0.0 | 0.0 | 0.00 | 0.00 | 0.00 | 64 | 1013.8 |
| 20260906074800 | 59 | 196 | 0.0 | 0.0 | 0.00 | 0.00 | 0.00 | 65 | 1013.9 |
| 20260906074301 | 59 | 196 | 0.0 | 0.0 | 0.00 | 0.00 | 0.00 | 65 | 1013.9 |
| 20260906073801 | 59 | 196 | 0.0 | 0.0 | 0.00 | 0.00 | 0.00 | 65 | 1013.9 |
| 20260906073301 | 59 | 196 | 0.0 | 0.0 | 0.00 | 0.00 | 0.00 | 65 | 1013.8 |
| 20260906072759 | 59 | 196 | 0.0 | 0.0 | 0.00 | 0.00 | 0.00 | 65 | 1013.8 |
| 20260906072305 | 59 | 196 | 0.0 | 0.0 | 0.00 | 0.00 | 0.00 | 65 | 1013.8 |
| 20260906071801 | 59 | 196 | 0.0 | 0.0 | 0.00 | 0.00 | 0.00 | 65 | 1013.9 |
| 20260906071519 | 59 | 196 | 0.0 | 0.0 | 0.00 | 0.00 | 0.00 | 65 | 1013.8 |
| 20260906070800 | 59 | 196 | 0.0 | 0.0 | 0.00 | 0.00 | 0.00 | 65 | 1013.8 |
| 20260906070259 | 59 | 196 | 0.0 | 0.0 | 0.00 | 0.00 | 0.00 | 65 | 1013.9 |
| 20260906065800 | 59 | 196 | 0.0 | 0.0 | 0.00 | 0.00 | 0.00 | 65 | 1013.8 |
| 20260906065301 | 59 | 196 | 0.0 | 0.0 | 0.00 | 0.00 | 0.00 | 64 | 1013.8 |
| 20260906064759 | 60 | 196 | 0.0 | 0.0 | 0.00 | 0.00 | 0.00 | 64 | 1013.6 |
| 20260906064301 | 60 | 196 | 0.0 | 0.0 | 0.00 | 0.00 | 0.00 | 64 | 1013.6 |
| 20260906063759 | 60 | 196 | 0.0 | 0.0 | 0.00 | 0.00 | 0.00 | 65 | 1013.5 |
| 20260906063301 | 60 | 196 | 0.0 | 0.0 | 0.00 | 0.00 | 0.00 | 64 | 1013.5 |
| 20260906062759 | 60 | 196 | 0.0 | 0.0 | 0.00 | 0.00 | 0.00 | 64 | 1013.5 |
| 20260906062517 | 60 | 196 | 0.0 | 0.0 | 0.00 | 0.00 | 0.00 | 63 | 1013.6 |
| 20260906061755 | 60 | 196 | 0.0 | 0.0 | 0.00 | 0.00 | 0.00 | 63 | 1013.6 |
| 20260906061512 | 60 | 196 | 0.0 | 0.0 | 0.00 | 0.00 | 0.00 | 63 | 1013.5 |
| 20260906060757 | 60 | 196 | 0.0 | 0.0 | 0.00 | 0.00 | 0.00 | 63 | 1013.4 |
| 20260906060255 | 60 | 196 | 0.0 | 0.0 | 0.00 | 0.00 | 0.00 | 62 | 1013.5 |
| 20260906055753 | 60 | 196 | 0.0 | 0.0 | 0.00 | 0.00 | 0.00 | 62 | 1013.5 |
| 20260906055251 | 60 | 196 | 0.0 | 0.0 | 0.00 | 0.00 | 0.00 | 62 | 1013.6 |
| 20260906054749 | 61 | 196 | 0.0 | 0.0 | 0.00 | 0.00 | 0.00 | 62 | 1013.6 |
| 20260906054245 | 61 | 196 | 0.0 | 0.0 | 0.00 | 0.00 | 0.00 | 62 | 1013.6 |
| 20260906053743 | 61 | 196 | 0.0 | 0.0 | 0.00 | 0.00 | 0.00 | 61 | 1013.7 |
| 20260906053241 | 61 | 196 | 0.0 | 0.0 | 0.00 | 0.00 | 0.00 | 62 | 1013.8 |
| 20260906052742 | 61 | 196 | 0.0 | 0.0 | 0.00 | 0.00 | 0.00 | 62 | 1013.8 |
| 20260906052236 | 61 | 196 | 0.0 | 0.0 | 0.00 | 0.00 | 0.00 | 62 | 1013.7 |
| 20260906051730 | 61 | 196 | 0.0 | 0.0 | 0.00 | 0.00 | 0.00 | 62 | 1013.8 |
| 20260906051225 | 61 | 196 | 0.0 | 0.0 | 0.00 | 0.00 | 0.00 | 62 | 1013.8 |
| 20260906050718 | 61 | 196 | 0.0 | 0.0 | 0.00 | 0.00 | 0.00 | 61 | 1013.7 |
| 20260906050212 | 61 | 196 | 0.0 | 0.0 | 0.00 | 0.00 | 0.00 | 62 | 1013.8 |
| 20260906045706 | 61 | 196 | 0.0 | 0.0 | 0.00 | 0.00 | 0.00 | 62 | 1013.8 |
| 20260906045200 | 61 | 196 | 0.0 | 0.0 | 0.00 | 0.00 | 0.00 | 62 | 1013.8 |
| 20260906044920 | 61 | 196 | 0.0 | 0.0 | 0.00 | 0.00 | 0.00 | 61 | 1013.7 |
| 20260906044148 | 61 | 196 | 0.0 | 0.0 | 0.00 | 0.00 | 0.00 | 62 | 1013.6 |
| 20260906043906 | 61 | 196 | 0.0 | 0.0 | 0.00 | 0.00 | 0.00 | 62 | 1013.7 |
| 20260906043138 | 61 | 196 | 0.0 | 0.0 | 0.00 | 0.00 | 0.00 | 60 | 1013.6 |
| 20260906042855 | 61 | 196 | 0.0 | 0.0 | 0.00 | 0.00 | 0.00 | 60 | 1013.8 |
| 20260906042124 | 61 | 196 | 0.0 | 0.0 | 0.00 | 0.00 | 0.00 | 60 | 1013.8 |
| 20260906041838 | 61 | 196 | 0.0 | 0.0 | 0.00 | 0.00 | 0.00 | 60 | 1013.8 |
| 20260906041112 | 61 | 196 | 0.0 | 0.0 | 0.00 | 0.00 | 0.00 | 60 | 1013.7 |
| 20260906040607 | 61 | 196 | 0.0 | 0.0 | 0.00 | 0.00 | 0.00 | 59 | 1013.8 |
| 20260906040108 | 61 | 196 | 0.0 | 0.0 | 0.00 | 0.00 | 0.00 | 60 | 1013.8 |
| 20260906035607 | 61 | 196 | 0.0 | 0.0 | 0.00 | 0.00 | 0.00 | 60 | 1013.7 |
| 20260906035106 | 61 | 196 | 0.0 | 0.0 | 0.00 | 0.00 | 0.00 | 60 | 1013.6 |
| 20260906034607 | 61 | 196 | 0.0 | 0.0 | 0.00 | 0.00 | 0.00 | 60 | 1013.7 |
| 20260906034106 | 62 | 196 | 0.0 | 0.0 | 0.00 | 0.00 | 0.00 | 59 | 1013.6 |
| 20260906033606 | 62 | 196 | 0.0 | 0.0 | 0.00 | 0.00 | 0.00 | 60 | 1013.7 |
| 20260906033105 | 62 | 196 | 0.0 | 0.0 | 0.00 | 0.00 | 0.00 | 60 | 1013.6 |
| 20260906032605 | 62 | 196 | 0.0 | 0.0 | 0.00 | 0.00 | 0.00 | 59 | 1013.6 |
| 20260906032324 | 62 | 196 | 0.0 | 0.0 | 0.00 | 0.00 | 0.00 | 60 | 1013.5 |
| 20260906031604 | 62 | 196 | 0.0 | 0.0 | 0.00 | 0.00 | 0.00 | 60 | 1013.6 |
| 20260906031322 | 62 | 196 | 0.0 | 0.0 | 0.00 | 0.00 | 0.00 | 60 | 1013.5 |
| 20260906030821 | 62 | 196 | 0.0 | 0.0 | 0.00 | 0.00 | 0.00 | 59 | 1013.6 |
| 20260906025602 | 63 | 196 | 0.0 | 0.0 | 0.00 | 0.00 | 0.00 | 59 | 1013.5 |
| 20260906025055 | 63 | 196 | 0.0 | 0.0 | 0.00 | 0.00 | 0.00 | 59 | 1013.5 |
| 20260906024548 | 63 | 196 | 0.0 | 0.0 | 0.00 | 0.00 | 0.00 | 59 | 1013.4 |
| 20260906024042 | 63 | 196 | 0.0 | 0.0 | 0.00 | 0.00 | 0.00 | 58 | 1013.3 |
| 20260906023536 | 63 | 196 | 0.0 | 0.0 | 0.00 | 0.00 | 0.00 | 58 | 1013.3 |
| 20260906023030 | 63 | 196 | 0.0 | 0.0 | 0.00 | 0.00 | 0.00 | 58 | 1013.3 |
| 20260906023003 | 63 | 196 | 0.0 | 0.0 | 0.00 | 0.00 | 0.00 | 59 | 1013.2 |
| 20260906022019 | 63 | 196 | 0.0 | 0.0 | 0.00 | 0.00 | 0.00 | 59 | 1013.3 |
| 20260906021734 | 63 | 196 | 0.0 | 0.0 | 0.00 | 0.00 | 0.00 | 58 | 1013.2 |
| 20260906021228 | 63 | 203 | 0.0 | 0.0 | 0.00 | 0.00 | 0.00 | 58 | 1013.2 |
| 20260906020725 | 64 | 203 | 0.0 | 0.0 | 0.00 | 0.00 | 0.00 | 58 | 1013.2 |
| 20260906020214 | 64 | 203 | 0.0 | 0.0 | 0.00 | 0.00 | 0.00 | 57 | 1013.2 |
| 20260906015448 | 64 | 203 | 0.0 | 0.0 | 0.00 | 0.00 | 0.00 | 58 | 1013.2 |
| 20260906014942 | 64 | 203 | 0.0 | 0.0 | 0.00 | 0.00 | 0.00 | 58 | 1013.1 |
| 20260906014436 | 64 | 203 | 0.0 | 0.0 | 0.00 | 0.00 | 0.00 | 57 | 1013.1 |
| 20260906013930 | 64 | 203 | 0.0 | 0.0 | 0.00 | 0.00 | 0.00 | 57 | 1013.2 |
| 20260906013424 | 64 | 203 | 0.0 | 0.0 | 0.00 | 0.00 | 0.00 | 58 | 1013.2 |
| 20260906013141 | 64 | 203 | 0.0 | 0.0 | 0.00 | 0.00 | 0.00 | 58 | 1013.1 |
| 20260906012412 | 65 | 203 | 0.0 | 0.0 | 0.00 | 0.00 | 0.00 | 57 | 1013.0 |
| 20260906012136 | 65 | 203 | 0.0 | 0.0 | 0.00 | 0.00 | 0.00 | 57 | 1013.1 |
| 20260906011400 | 65 | 203 | 0.0 | 0.0 | 0.00 | 0.00 | 0.00 | 57 | 1013.0 |
| 20260906010853 | 65 | 203 | 0.0 | 0.0 | 0.00 | 0.00 | 0.00 | 56 | 1013.0 |
| 20260906010348 | 65 | 203 | 0.0 | 0.0 | 0.00 | 0.00 | 0.00 | 56 | 1013.1 |
| 20260906005842 | 65 | 203 | 0.0 | 0.0 | 0.00 | 0.00 | 0.00 | 57 | 1013.0 |
| 20260906005336 | 65 | 207 | 0.0 | 0.0 | 0.00 | 0.00 | 0.00 | 57 | 1013.1 |
| 20260906004830 | 65 | 207 | 0.0 | 0.0 | 0.00 | 0.00 | 0.00 | 59 | 1013.1 |
| 20260906004323 | 65 | 207 | 0.0 | 0.0 | 0.00 | 0.00 | 0.00 | 58 | 1013.0 |
| 20260906003818 | 66 | 207 | 0.0 | 0.0 | 0.00 | 0.00 | 0.00 | 58 | 1013.0 |
| 20260906003533 | 66 | 207 | 0.0 | 0.0 | 0.00 | 0.00 | 0.00 | 57 | 1012.8 |
| 20260906002807 | 66 | 207 | 0.0 | 0.0 | 0.00 | 0.00 | 0.00 | 57 | 1012.8 |
| 20260906002300 | 66 | 207 | 0.0 | 0.0 | 0.00 | 0.00 | 0.00 | 58 | 1012.8 |
| 20260906001754 | 66 | 207 | 0.0 | 0.0 | 0.00 | 0.00 | 0.00 | 57 | 1012.8 |
| 20260906001248 | 66 | 207 | 0.0 | 0.0 | 0.00 | 0.00 | 0.00 | 56 | 1012.7 |
| 20260906000742 | 66 | 207 | 0.0 | 0.0 | 0.00 | 0.00 | 0.00 | 56 | 1012.8 |
| 20260906000457 | 66 | 207 | 0.0 | 0.0 | 0.00 | 0.00 | 0.00 | 56 | 1012.8 |
| 20260905235730 | 66 | 207 | 0.0 | 0.0 | 0.00 | 0.00 | 0.00 | 56 | 1012.7 |
| 20260905235224 | 66 | 207 | 0.0 | 0.0 | 0.00 | 0.00 | 0.00 | 56 | 1012.6 |
| 20260905234939 | 66 | 207 | 0.0 | 0.0 | 0.00 | 0.00 | 0.00 | 56 | 1012.6 |
| 20260905234212 | 66 | 207 | 0.0 | 0.0 | 0.00 | 0.00 | 0.00 | 55 | 1012.5 |
| 20260905233936 | 67 | 207 | 0.0 | 0.0 | 0.00 | 0.00 | 0.00 | 55 | 1012.5 |
| 20260905233200 | 67 | 207 | 0.0 | 0.0 | 0.00 | 0.00 | 0.00 | 54 | 1012.5 |
| 20260905232654 | 67 | 207 | 0.0 | 0.0 | 0.00 | 0.00 | 0.00 | 55 | 1012.5 |
| 20260905232148 | 67 | 207 | 0.0 | 0.0 | 0.00 | 0.00 | 0.00 | 55 | 1012.4 |
| 20260905231906 | 67 | 207 | 0.0 | 0.0 | 0.00 | 0.00 | 0.00 | 55 | 1012.5 |
| 20260905231136 | 67 | 207 | 0.0 | 0.0 | 0.00 | 0.00 | 0.00 | 55 | 1012.4 |
| 20260905230629 | 67 | 207 | 0.0 | 0.0 | 0.00 | 0.00 | 0.00 | 55 | 1012.3 |
| 20260905230124 | 67 | 207 | 0.0 | 0.0 | 0.00 | 0.00 | 0.00 | 56 | 1012.2 |
| 20260905225618 | 67 | 207 | 0.0 | 0.0 | 0.00 | 0.00 | 0.00 | 56 | 1012.2 |
| 20260905225112 | 67 | 207 | 0.0 | 0.0 | 0.00 | 0.00 | 0.00 | 56 | 1012.2 |
| 20260905225056 | 67 | 207 | 0.0 | 0.0 | 0.00 | 0.00 | 0.00 | 55 | 1012.2 |
| 20260905224100 | 67 | 207 | 0.0 | 0.0 | 0.00 | 0.00 | 0.00 | 56 | 1012.2 |
| 20260905223553 | 68 | 207 | 0.0 | 0.0 | 0.00 | 0.00 | 0.00 | 55 | 1012.1 |
| 20260905223047 | 68 | 207 | 0.0 | 0.0 | 0.00 | 0.00 | 0.00 | 54 | 1012.1 |
| 20260905222542 | 68 | 207 | 0.0 | 0.0 | 0.00 | 0.00 | 0.00 | 55 | 1012.1 |
| 20260905222300 | 68 | 207 | 0.0 | 0.0 | 0.00 | 0.00 | 0.00 | 55 | 1012.1 |
| 20260905221530 | 68 | 207 | 0.0 | 0.0 | 0.00 | 0.00 | 0.00 | 54 | 1012.1 |
| 20260905221024 | 69 | 207 | 0.0 | 0.0 | 0.00 | 0.00 | 0.00 | 54 | 1012.1 |
| 20260905220524 | 69 | 207 | 0.0 | 0.0 | 0.00 | 0.00 | 0.00 | 53 | 1012.0 |
| 20260905220021 | 69 | 207 | 0.0 | 0.0 | 0.00 | 0.00 | 0.00 | 54 | 1011.9 |
| 20260905215521 | 69 | 207 | 0.0 | 0.0 | 0.00 | 0.00 | 0.00 | 53 | 1011.8 |
| 20260905215023 | 69 | 207 | 0.0 | 0.0 | 0.00 | 0.00 | 0.00 | 52 | 1011.7 |
| 20260905214519 | 69 | 207 | 0.0 | 0.0 | 0.00 | 0.00 | 0.00 | 53 | 1011.6 |
| 20260905214018 | 69 | 207 | 0.0 | 0.0 | 0.00 | 0.00 | 0.00 | 52 | 1011.5 |
| 20260905213518 | 69 | 207 | 0.0 | 0.0 | 0.00 | 0.00 | 0.00 | 52 | 1011.5 |
| 20260905213018 | 69 | 207 | 0.0 | 0.0 | 0.00 | 0.00 | 0.00 | 51 | 1011.4 |
| 20260905212516 | 70 | 207 | 0.0 | 0.0 | 0.00 | 0.00 | 0.00 | 51 | 1011.3 |